Saint Simons Island, GA

2:44 AM EST on November 18, 2019 (GMT -0500)
McKinnon

Weather History for KSSI - September, 2019

Change the Weather History Date:

Saturday, September 21, 2019

  Actual Average Record
Temperature  
Mean Temperature 82 °F 77 °F  
Max Temperature 86 °F 84 °F 92 °F (1954)
Min Temperature 77 °F 71 °F 60 °F (2006)
Degree Days  
Heating Degree Days 0 0  
Month to date heating degree days 0 0  
Since 1 July heating degree days 0 0  
Cooling Degree Days 17 12  
Month to date cooling degree days 377 296  
Year to date cooling degree days 2831 2272  
Growing Degree Days 31 (Base 50)    
Moisture  
Dew Point 63 °F    
Average Humidity 57    
Maximum Humidity 62    
Minimum Humidity 51    
Precipitation  
Precipitation 0.00 in 0.17 in 1.65 in (1969)
Month to date precipitation 2.76 4.14  
Year to date precipitation 27.10 34.25  
Snow  
Snow 0.00 in - 0.00 in ()
Month to date snowfall 0.0  
Since 1 July snowfall 0.0  
Since 1 September snowfall 0.0  
Snow Depth 0.00 in    
Sea Level Pressure  
Sea Level Pressure 30.22 in    
Wind  
Wind Speed 12 mph (ENE)    
Max Wind Speed 18 mph    
Max Gust Speed 24 mph    
Visibility 10 miles    
Events      
T = Trace of Precipitation, MM = Missing Value Source: NWS Daily Summary

Daily Weather History Graph

Daily Weather History Graph

Search for Another Location

Airport or City:

Astronomy

Sep. 21, 2019 Rise Set
Actual Time 7:13 AM EDT 7:23 PM EDT
Civil Twilight 6:48 AM EDT 7:47 PM EDT
Nautical Twilight 6:20 AM EDT 8:16 PM EDT
Astronomical Twilight 5:52 AM EDT 8:44 PM EDT
Moon No Moon Rise 1:53 PM EDT (9/21)
Length of Visible Light 12h 58m
Length of Day
12h 10m
Waning Gibbous, 55% of the Moon is Illuminated
Sep 21
Waning Gibbous
Sep 21
Last Quarter
Sep 28
New
Oct 5
First Quarter
Oct 13
Full

Hourly Weather History & Observations

Time (EDT) Temp. Heat Index Dew Point Humidity Pressure Visibility Wind Dir Wind Speed Gust Speed Precip Events Conditions
12:53 AM 78.1 °F - 62.1 °F 58% 30.22 in 10.0 mi East 12.7 mph - N/A   Clear
1:53 AM 78.1 °F - 62.1 °F 58% 30.22 in 10.0 mi East 10.4 mph - N/A   Scattered Clouds
2:53 AM 78.1 °F - 63.0 °F 60% 30.21 in 10.0 mi East 9.2 mph - N/A   Mostly Cloudy
3:53 AM 78.1 °F - 63.0 °F 60% 30.20 in 10.0 mi East 11.5 mph - N/A   Partly Cloudy
4:53 AM 78.1 °F - 61.0 °F 56% 30.20 in 10.0 mi East 10.4 mph - N/A   Clear
5:53 AM 78.1 °F - 61.0 °F 56% 30.20 in 10.0 mi East 11.5 mph - N/A   Clear
6:53 AM 78.1 °F - 59.0 °F 52% 30.22 in 10.0 mi ENE 9.2 mph - N/A   Clear
7:53 AM 79.0 °F - 64.0 °F 60% 30.24 in 10.0 mi ENE 11.5 mph - N/A   Mostly Cloudy
8:53 AM 81.0 °F 82.2 °F 63.0 °F 54% 30.25 in 10.0 mi ENE 13.8 mph 19.6 mph N/A   Clear
9:53 AM 82.9 °F 84.0 °F 63.0 °F 51% 30.27 in 10.0 mi ENE 11.5 mph 19.6 mph N/A   Clear
10:53 AM 82.9 °F 84.4 °F 64.0 °F 53% 30.28 in 10.0 mi ENE 15.0 mph - N/A   Scattered Clouds
11:53 AM 84.0 °F 85.4 °F 64.0 °F 51% 30.27 in 10.0 mi ENE 15.0 mph - N/A   Scattered Clouds
12:53 PM 84.0 °F 85.8 °F 64.9 °F 53% 30.26 in 10.0 mi NE 15.0 mph - N/A   Partly Cloudy
1:53 PM 84.0 °F 85.8 °F 64.9 °F 53% 30.24 in 10.0 mi NE 13.8 mph - N/A   Clear
2:53 PM 84.0 °F 86.3 °F 66.0 °F 55% 30.23 in 10.0 mi ENE 16.1 mph 21.9 mph N/A   Partly Cloudy
3:53 PM 82.9 °F 85.0 °F 66.0 °F 56% 30.21 in 10.0 mi NE 15.0 mph 23.0 mph N/A   Clear
4:53 PM 82.9 °F 84.6 °F 64.9 °F 54% 30.20 in 10.0 mi ENE 12.7 mph - N/A   Clear
5:53 PM 82.0 °F 83.1 °F 63.0 °F 52% 30.19 in 10.0 mi ENE 11.5 mph - N/A   Clear
6:53 PM 80.1 °F 81.2 °F 62.1 °F 54% 30.20 in 10.0 mi East 11.5 mph - N/A   Clear
7:53 PM 79.0 °F - 62.1 °F 56% 30.20 in 10.0 mi East 10.4 mph - N/A   Clear
8:53 PM 79.0 °F - 63.0 °F 58% 30.20 in 10.0 mi ENE 10.4 mph - N/A   Clear
9:53 PM 78.1 °F - 64.9 °F 64% 30.21 in 10.0 mi East 10.4 mph - N/A   Clear
10:53 PM 78.1 °F - 64.0 °F 62% 30.21 in 10.0 mi East 9.2 mph - N/A   Clear
11:53 PM 78.1 °F - 64.0 °F 62% 30.20 in 10.0 mi East 9.2 mph - N/A   Clear